Regional Weather Roundup
Issued by NWS Kansas City/Pleasant Hill, MO

Home | Current Version | Previous Version | Graphics & Text | Print | Product List | Glossary Off
Versions: 1 2 3 4 5 6 7 8 9 10 11 12 13 14 15 16 17 18 19 20 21 22 23 24 25 26 27 28

000
ASUS43 KEAX 220010
RWREAX

WEATHER ROUNDUP FOR EASTERN KANSAS AND NORTHWEST MISSOURI
NATIONAL WEATHER SERVICE KANSAS CITY/PLEASANT HILL MO
600 PM CST SAT JAN 21 2017

KSZ040-057-103>105-MOZ028-029-037-043-220100-
...KANSAS CITY METROPOLITAN AREA...

CITY           SKY/WX    TMP DP  RH WIND       PRES   REMARKS
K.C. INTL      CLOUDY    51  39  63 E6        29.50R
6HR MIN TEMP:  11; 6HR MAX TEMP: 126;

K.C. DOWNTOWN  CLOUDY    54  40  59 SE6       29.50R
6HR MIN TEMP:  48; 6HR MAX TEMP:  57;

LEES SUMMIT    LGT RAIN  50  43  77 MISG      29.51R
6HR MIN TEMP:  45; 6HR MAX TEMP:  56; 6HR PCP: TRACE;

OLATHE - IXD   LGT RAIN  50  43  77 E7        29.51R
6HR MIN TEMP:  48; 6HR MAX TEMP:  56; 6HR PCP:  0.01;

OLATHE - OJC   LGT RAIN  50  42  74 SE3       29.50R
6HR MIN TEMP:  46; 6HR MAX TEMP:  55; 6HR PCP:  0.01;

LAWRENCE       LGT RAIN  50  44  80 E3        29.50R

$$

MOZ001>008-011>017-020>025-030>033-038>040-044>046-053-054-220100-
...NORTHERN AND CENTRAL MISSOURI...

CITY           SKY/WX    TMP DP  RH WIND       PRES   REMARKS
ST. JOSEPH     PTCLDY    45  40  82 NE3       29.51R
6HR MIN TEMP:  43; 6HR MAX TEMP:  53;

MOSBY          CLOUDY    48  41  76 NE3       29.52R
WARRENSBURG    CLOUDY    50  43  76 N3        29.51S
WHITEMAN AFB   CLOUDY    49  47  92 CALM      29.50S
6HR MIN TEMP:  49; 6HR MAX TEMP:  59; 6HR PCP: TRACE;

CLINTON        CLOUDY    52  41  66 CALM      29.52R
SEDALIA        PTCLDY    53  42  66 N5        29.53S
6HR MIN TEMP:  53; 6HR MAX TEMP:  60; 6HR PCP: TRACE;

WARSAW         NOT AVBL
CHILLICOTHE      N/A     42  40  92 CALM      29.55R
6HR MIN TEMP:  42; 6HR MAX TEMP:  51;

KIRKSVILLE     CLEAR     40  39  97 NW3       29.55R
6HR MIN TEMP:  40; 6HR MAX TEMP:  48;


$$

MOZ041-047>049-056>058-063>065-088>090-097-220100-
...EASTERN AND SOUTHERN MISSOURI...

CITY           SKY/WX    TMP DP  RH WIND       PRES   REMARKS
ST. LOUIS INTL MOCLDY    60  39  45 CALM      29.53R
6HR MIN TEMP:  60; 6HR MAX TEMP:  72;

SPIRIT OF STL  CLOUDY    56  44  64 CALM      29.51R
COLUMBIA       MOCLDY    57  38  48 NW3       29.52S
JEFFERSON CITY CLOUDY    56  39  53 CALM      29.52R
ROLLA          MOCLDY    53  41  63 N5        29.51R
OSAGE BEACH    CLOUDY    58  36  43 N3        29.52S
SPRINGFIELD    CLOUDY    59  41  51 SE3       29.48S
BRANSON        CLOUDY    61  39  44 S5        29.50R
JOPLIN         LGT RAIN  59  44  57 S6        29.47S
WEST PLAINS    CLOUDY    59  44  57 CALM      29.54R

$$

IAZ060-094-KSZ022-034>040-054-083-096-NEZ052-066-093-220100-
...KANSAS...SOUTHEAST NEBRASKA AND IOWA...

CITY           SKY/WX    TMP DP  RH WIND       PRES   REMARKS
TOPEKA         LGT RAIN  52  41  66 CALM      29.50R
6HR MIN TEMP:  49; 6HR MAX TEMP:  57; 6HR PCP: TRACE;

MANHATTAN      MOCLDY    51  39  63 SE5       29.48R
EMPORIA        LGT RAIN  47  44  90 SE6       29.49R
CHANUTE        CLOUDY    50  41  71 CALM      29.47S
WICHITA        CLOUDY    47  44  90 NE7       29.42R
OMAHA          PTCLDY    47  36  65 CALM      29.49R
LINCOLN        CLEAR     42  36  79 CALM      29.51R
FALLS CITY     CLEAR     49  39  68 CALM      29.50R
LAMONI         CLEAR     43  39  86 S6        29.52R
DES MOINES     PTCLDY    40  36  86 W7        29.52R

$$





USA.gov is the U.S. government's official web portal to all federal, state and local government web resources and services.